Las Vegas, NV

7:47 AM PDT on May 26, 2017 (GMT -0700)
McCarran International

Weather History for KLAS - February, 2014

Change the Weather History Date:

Saturday, February 8, 2014

  Actual Average Record
Temperature  
Mean Temperature 53 °F 51 °F  
Max Temperature 64 °F 61 °F 77 °F (2015)
Min Temperature 42 °F 42 °F 25 °F (1949)
Degree Days  
Heating Degree Days 12 14  
Month to date heating degree days 136 114  
Since 1 July heating degree days 1300 1466  
Cooling Degree Days 0 0  
Month to date cooling degree days 0 0  
Year to date cooling degree days 0 0  
Growing Degree Days 3 (Base 50)    
Moisture  
Dew Point 36 °F    
Average Humidity 56    
Maximum Humidity 76    
Minimum Humidity 36    
Precipitation  
Precipitation 0.00 in 0.02 in 1.29 in (1993)
Month to date precipitation T 0.17  
Year to date precipitation T 0.71  
Snow  
Snow 0.00 in 0.00 in 0.30 in (1989)
Month to date snowfall 0.0 0.0  
Since 1 July snowfall 0.0 0.2  
Snow Depth 0.00 in    
Sea Level Pressure  
Sea Level Pressure 30.07 in    
Wind  
Wind Speed 4 mph (SW)    
Max Wind Speed 10 mph    
Max Gust Speed 12 mph    
Visibility 10 miles    
Events      
T = Trace of Precipitation, MM = Missing Value Source: NWS Daily Summary

Daily Weather History Graph

Daily Weather History Graph

Search for Another Location

Airport or City:

Trip Planner

Search our weather history database for the weather conditions in past years. The results will help you decide how hot, cold, wet, or windy it might be!

Date:

Astronomy

Feb. 08, 2014 Rise Set
Actual Time 6:35 AM PST 5:14 PM PST
Civil Twilight 6:08 AM PST 5:41 PM PST
Nautical Twilight 5:38 AM PST 6:11 PM PST
Astronomical Twilight 5:08 AM PST 6:41 PM PST
Moon 12:14 PM PST (2/8) 1:48 AM PST (2/8)
Length of Visible Light 11h 32m
Length of Day
10h 39m
Waxing Gibbous, 69% of the Moon is Illuminated
Feb 8
Waxing Gibbous
Feb 14
Full
Feb 22
Last Quarter
Mar 1
New
Mar 8
First Quarter

Hourly Weather History & Observations

Time (PST) Temp. Windchill Dew Point Humidity Pressure Visibility Wind Dir Wind Speed Gust Speed Precip Events Conditions
12:56 AM 46.0 °F 42.5 °F 37.0 °F 71% 30.01 in 10.0 mi WSW 6.9 mph - N/A   Overcast
1:56 AM 46.0 °F 43.1 °F 36.0 °F 68% 30.02 in 10.0 mi SW 5.8 mph - N/A   Mostly Cloudy
2:56 AM 45.0 °F 41.8 °F 36.0 °F 71% 30.03 in 10.0 mi SW 5.8 mph - N/A   Overcast
3:56 AM 44.1 °F 40.1 °F 35.1 °F 71% 30.04 in 10.0 mi SSW 6.9 mph - N/A   Mostly Cloudy
4:56 AM 45.0 °F 41.8 °F 36.0 °F 71% 30.04 in 10.0 mi SW 5.8 mph - N/A   Mostly Cloudy
5:56 AM 44.1 °F 40.8 °F 36.0 °F 73% 30.09 in 10.0 mi SW 5.8 mph - N/A   Mostly Cloudy
6:56 AM 43.0 °F 37.7 °F 35.1 °F 74% 30.11 in 10.0 mi SSW 9.2 mph - N/A   Mostly Cloudy
7:56 AM 46.0 °F 43.1 °F 36.0 °F 68% 30.13 in 10.0 mi SSW 5.8 mph - N/A   Mostly Cloudy
8:56 AM 51.1 °F - 37.0 °F 59% 30.16 in 10.0 mi Calm Calm - N/A   Mostly Cloudy
9:56 AM 53.1 °F - 36.0 °F 52% 30.17 in 10.0 mi SSW 4.6 mph - N/A   Mostly Cloudy
10:56 AM 55.9 °F - 36.0 °F 47% 30.15 in 10.0 mi Calm Calm - N/A   Mostly Cloudy
11:56 AM 57.0 °F - 36.0 °F 45% 30.11 in 10.0 mi ESE 4.6 mph - N/A   Mostly Cloudy
12:56 PM 57.0 °F - 36.0 °F 45% 30.08 in 10.0 mi Calm Calm - N/A   Mostly Cloudy
1:56 PM 60.1 °F - 37.0 °F 42% 30.04 in 10.0 mi East 8.1 mph - N/A   Mostly Cloudy
2:56 PM 63.0 °F - 37.9 °F 40% 30.01 in 10.0 mi Calm Calm - N/A   Mostly Cloudy
3:56 PM 63.0 °F - 37.0 °F 38% 30.00 in 10.0 mi Calm Calm - N/A   Mostly Cloudy
4:56 PM 62.1 °F - 36.0 °F 38% 30.00 in 10.0 mi Calm Calm - N/A   Mostly Cloudy
5:56 PM 59.0 °F - 36.0 °F 42% 30.03 in 10.0 mi WNW 3.5 mph - N/A   Mostly Cloudy
6:56 PM 57.0 °F - 37.9 °F 49% 30.06 in 10.0 mi West 6.9 mph - N/A   Mostly Cloudy
7:56 PM 55.0 °F - 37.0 °F 51% 30.07 in 10.0 mi NNW 4.6 mph - N/A   Mostly Cloudy
8:56 PM 54.0 °F - 37.0 °F 53% 30.06 in 10.0 mi Calm Calm - N/A   Mostly Cloudy
9:56 PM 53.1 °F - 37.0 °F 55% 30.07 in 10.0 mi WSW 5.8 mph - N/A   Mostly Cloudy
10:56 PM 53.1 °F - 37.0 °F 55% 30.08 in 10.0 mi SSW 8.1 mph - N/A   Mostly Cloudy
11:56 PM 50.0 °F - 36.0 °F 59% 30.08 in 10.0 mi SSW 8.1 mph - N/A   Mostly Cloudy